Retour au catalogue

STARLINK-37507

ActifCommunicationsSSO
NORAD 68916·PAYLOAD·🇺🇸 United States

Lancé Apr 30, 2026 depuis Vandenberg Space Force Base

Loading…

Prochains Passages (prochaines 24 heures)

TLE

FraisSource: CelesTrak SupGP

Époque: Sep 15, 2026, 03:07 UTC

1 68916C 26097X   26258.13034722 -.00038463  00000+0 -11940-2 0  2589
2 68916  97.2856  92.3992 0001662  90.6529 215.3629 15.33457729    14

Suivez STARLINK-37507 en temps réel avec AllMySat

Download on the App Store